Home   Weather   Mons   Past weeks

Flag for Belgium Past Weather in Mons, Belgium — Yesterday and Last 2 Weeks

Now
59 °F

Cool.


Feels Like: 59 °F
Forecast: 55 / 70 °F
Wind: 5 mph from West

Location: Chievres

Current Time: Jul 27, 2017 at 11:01:36 pm

Latest Report: Jul 27, 2017 at 10:25 pm


Visibility: N/A

Pressure: 29.80 "Hg

Humidity: 68%

Dew Point: 48 °F

Location of MonsLocation

Past Weather in Mons — Graph

°F

Mons Temperature Yesterday

Maximum temperature yesterday: 77 °F (at 2:55 pm)
Minimum temperature yesterday: 50 °F (at 5:55 am)
Average temperature yesterday: 62 °F

High & Low Weather Summary for the Past Weeks

 TemperatureHumidityPressure
High81 °F (Jul 21, 6:25 pm)100% (Jul 17, 6:08 am)30.24 "Hg (Jul 17, 6:08 am)
Low45 °F (Jul 13, 4:25 am)28% (Jul 21, 6:25 pm)29.77 "Hg (Jul 20, 8:55 am)
Average63 °F72%29.98 "Hg
* Reported Jul 12 9:25 pm — Jul 27 9:25 pm, Mons. Weather by CustomWeather, © 2017

Note: Actual official high and low records may vary slightly from our data, if they occured in-between our weather recording intervals... More about our weather records

Advertising

Mons Weather History for the Previous 24 Hours

Scroll right to see more
 ConditionsComfort  
Time TempWeatherWind HumidityBarometerVisibility
9:25 pm
Thu, Jul 27
64 °FPartly sunny.8 mph52%29.80 "HgN/A
8:55 pm66 °FPartly sunny.10 mph46%29.80 "HgN/A
8:25 pm66 °FPartly sunny.8 mph49%29.77 "HgN/A
7:55 pm68 °FBroken clouds.10 mph46%29.77 "HgN/A
7:25 pm68 °FBroken clouds.12 mph43%29.77 "HgN/A
6:55 pm70 °FPartly sunny.12 mph38%29.77 "HgN/A
6:25 pm72 °FPartly sunny.14 mph38%29.77 "HgN/A
5:55 pm70 °FPartly sunny.12 mph46%29.77 "HgN/A
5:25 pm72 °FScattered clouds.13 mph41%29.77 "HgN/A
4:55 pm72 °FBroken clouds.12 mph44%29.77 "HgN/A
4:25 pm73 °FScattered clouds.14 mph41%29.77 "HgN/A
3:55 pm72 °FBroken clouds.12 mph44%29.77 "HgN/A
3:25 pm70 °FPartly sunny.12 mph46%29.77 "HgN/A
2:55 pm70 °FPartly sunny.10 mph46%29.77 "HgN/A
2:25 pm70 °FPartly sunny.8 mph50%29.77 "HgN/A
1:55 pm68 °FPartly sunny.7 mph53%29.77 "HgN/A
1:25 pm68 °FPartly sunny.8 mph53%29.80 "HgN/A
12:55 pm68 °FBroken clouds.13 mph53%29.80 "HgN/A
12:25 pm68 °FScattered clouds.10 mph56%29.80 "HgN/A
12:15 pm66 °FPartly sunny.10 mph60%29.80 "HgN/A
11:55 am68 °FScattered clouds.8 mph60%29.80 "HgN/A
11:25 am64 °FBroken clouds.10 mph68%29.80 "HgN/A
10:55 am64 °FBroken clouds.9 mph68%29.80 "HgN/A
10:25 am64 °FBroken clouds.10 mph73%29.80 "HgN/A
10:19 am64 °FBroken clouds.9 mph68%29.80 "HgN/A
9:25 am61 °FBroken clouds.9 mph88%29.80 "HgN/A
8:55 am61 °FPartly sunny.9 mph88%29.80 "HgN/A
8:25 am59 °FBroken clouds.8 mph94%29.80 "HgN/A
7:55 am59 °FPartly sunny.9 mph94%29.80 "HgN/A
7:25 am59 °FPartly sunny.9 mph88%29.80 "HgN/A
6:55 am59 °FOvercast.9 mph88%29.80 "HgN/A
6:44 am59 °FPartly sunny.9 mph94%29.80 "HgN/A
6:25 am59 °FPartly sunny.8 mph94%29.77 "HgN/A
5:55 am59 °FPassing clouds.7 mph94%29.77 "HgN/A
5:25 am59 °FPassing clouds.6 mph94%29.77 "HgN/A
4:55 am61 °FPassing clouds.8 mph88%29.77 "HgN/A
4:35 am61 °FPassing clouds.8 mph88%29.77 "HgN/A
4:25 am61 °FPassing clouds.9 mph88%29.77 "HgN/A
4:15 am61 °FPassing clouds.9 mph94%29.77 "HgN/A
3:55 am63 °FPartly cloudy.8 mph88%29.77 "HgN/A
3:25 am63 °FPassing clouds.10 mph94%29.77 "HgN/A
2:55 am64 °FLight rain. Passing clouds.14 mph88%29.77 "Hg3 mi
2:25 am64 °FPartly cloudy.8 mph94%29.77 "HgN/A
1:55 am64 °FPartly cloudy.8 mph94%29.77 "HgN/A
1:25 am64 °FPartly cloudy.9 mph94%29.77 "HgN/A
12:55 am64 °FPassing clouds.10 mph94%29.77 "HgN/A
12:33 am64 °FPartly cloudy.9 mph94%29.77 "HgN/A
12:03 am64 °FDrizzle. Mostly cloudy.9 mph94%29.77 "HgN/A
11:55 pm
Wed, Jul 26
64 °FDrizzle. Overcast.9 mph94%29.80 "HgN/A
11:25 pm64 °FOvercast.9 mph94%29.80 "HgN/A
11:19 pm64 °FOvercast.9 mph94%29.80 "HgN/A
Weather by CustomWeather, © 2017

See weather overviewHow to use our weather pages